Location: São Paulo
(23.5507°S, 46.6334°W)
Time: 11:03:19
(UTC-03:00)

Explorer 7 - Pass Details

Date: 25 February 2026
Orbit: 430 x 541 km, 50.2° (Epoch: 11 March)

Event Time Altitude Azimuth Distance (km) Brightness Sun altitude
Rises 22:01:30 0° 326° (NNW) 2,666 - -43.3°
Reaches altitude 10° 22:03:43 10° 330° (NNW) 1,791 - -43.7°
Maximum altitude 22:07:45 61° 50° (NE) 620 - -44.4°
Drops below altitude 10° 22:11:52 10° 130° (SE) 1,820 - -45.1°
Sets 22:14:08 0° 133° (SE) 2,714 - -45.5°
